World of Logs combat log analyzer allows gamers to save, share and analyze their raiding experiences conveniently and thoroughly in the Blizzard MMO World of Warcraft. If you're new here, make sure you check out the tour for a 1 minute introduction. If you have any questions, we're happy to answer them on the forums.

DPS HPS
Odyn
Helya
Guarm
Reports for Thok the Bloodthirsty - statistics
# Date Time Damage DPS Guild Realm
801 04 Oct 2014 05:42 865.53M 2524215.6 myLogs EU-Ясеневый лес
802 17 Sep 2014 05:42 863.55M 2518059.7 Iridescence EU-Thunderhorn
803 08 Oct 2014 05:43 862.11M 2511147.4 Aroari's logs US-Lightbringer
804 20 Sep 2014 05:43 885.04M 2577903.9 Halcyon Chapter US-Frostmourne
805 08 Oct 2014 05:43 864.25M 2517261.0 Cow Trading Company EU-Kult der Verdammten
806 26 Sep 2014 05:43 861.51M 2508748.7 Pokemon Masters US-Blackrock
807 29 Sep 2014 05:43 863.96M 2515237.0 Букихем EU-Свежеватель Душ
808 14 Sep 2014 05:43 859.92M 2503202.6 Ðefiance EU-Tarren Mill
809 10 Sep 2014 05:43 745.32M 2169575.3 KerioxLog EU-Khaz Modan
810 08 Oct 2014 05:43 878.93M 2557758.1 Appetite For Destruction EU-Draenor
811 09 Oct 2014 05:43 859.51M 2500912.3 Sanctum Nocturnos EU-Aggra
812 18 Sep 2014 05:43 862.60M 2509706.5 Better than Life EU-Aszune
813 20 Sep 2014 05:43 885.11M 2574431.4 Baltimore EU-Blackrock
814 10 Sep 2014 05:43 873.38M 2540300.3 Versus EU-Борейская тундра
815 01 Oct 2014 05:44 905.93M 2632604.1 Yinfaitl EU-Ragnaros
816 23 Sep 2014 05:44 810.64M 2355348.8 Fatal Union US-Kargath
817 23 Sep 2014 05:44 810.64M 2355225.6 Fatal Union US-Kargath
818 23 Sep 2014 05:44 810.64M 2355191.4 Fatal Union US-Kargath
819 19 Sep 2014 05:44 865.97M 2513871.4 Red Branch US-Shattered Halls
820 07 Oct 2014 05:44 807.44M 2343531.4 Vantage US-Bleeding Hollow
821 09 Oct 2014 05:44 855.76M 2483723.1 Pride EU-Mal'Ganis
822 07 Oct 2014 05:44 807.62M 2343880.7 Vantage US-Bleeding Hollow
823 13 Sep 2014 05:44 876.71M 2541676.3 Kinesis US-Zul'jin
824 21 Sep 2014 05:44 818.00M 2371369.7 Daves logs! EU-Aerie Peak
825 08 Oct 2014 05:45 865.81M 2509605.4 Jiwwi EU-Гордунни
826 07 Sep 2014 05:45 862.38M 2498126.8 Шайтан EU-Дракономор
827 24 Sep 2014 05:45 903.88M 2618276.9 Ladies First EU-Drak'thul
828 13 Sep 2014 05:45 876.94M 2539824.8 Crux US-Zul'jin
829 06 Sep 2014 05:45 862.81M 2498768.4 Paragons of Pandaria EU-Свежеватель Душ
830 09 Oct 2014 05:45 872.95M 2527565.6 Blacklisted US-Velen
831 07 Sep 2014 05:45 877.24M 2538414.8 Weltenwächter EU-Die Nachtwache
832 10 Sep 2014 05:45 858.07M 2482594.4 Vortex US-Terenas
833 01 Oct 2014 05:45 868.54M 2512866.6 Lunar EU-Emerald Dream
834 05 Oct 2014 05:45 896.47M 2593365.3 Делириум Тременс (Йондеркофер) EU-Гордунни
835 21 Sep 2014 05:45 818.73M 2368333.0 Nobody loves Gnimo EU-Mannoroth
836 17 Sep 2014 05:45 859.26M 2485550.9 Nothing Personal EU-Burning Legion
837 17 Sep 2014 05:46 809.95M 2340744.0 The Hungering Cold EU-Defias Brotherhood
838 25 Sep 2014 05:46 859.14M 2482426.4 Honor and Glory EU-Ragnaros
839 22 Sep 2014 05:46 866.91M 2504502.3 Acid US-Lightninghoof
840 18 Sep 2014 05:46 883.35M 2549899.6 VollKontakt EU-Blackmoore
841 08 Oct 2014 05:46 897.70M 2590917.6 immortalis US-Zul'jin
842 11 Sep 2014 05:46 886.82M 2559154.9 Elitist US-Nathrezim
843 08 Oct 2014 05:46 871.39M 2514422.4 Эксклюзив EU-Страж Смерти
844 08 Oct 2014 05:46 866.68M 2500072.6 The Last Try EU-Throk'Feroth
845 23 Sep 2014 05:46 915.66M 2639836.0 The Coalition US-Lightbringer
846 24 Sep 2014 05:46 860.29M 2479970.9 EquinoXx EU-Archimonde
847 08 Sep 2014 05:46 884.09M 2548394.0 Paranøïak EU-Hyjal
848 07 Oct 2014 05:47 879.69M 2535057.2 Guiles Theme Song US-Magtheridon
849 24 Sep 2014 05:47 867.20M 2497447.1 Patch EU-Anetheron
850 24 Sep 2014 05:47 867.10M 2497065.0 WeRockYa [Grp2] EU-Malorne
851 11 Sep 2014 05:47 891.99M 2566296.3 Skutt EU-Frostmane
852 11 Sep 2014 05:47 891.99M 2566222.4 Turbo EU-Frostmane
853 12 Oct 2014 05:47 861.36M 2477175.3 Eommy Best EU-Гордунни
854 11 Sep 2014 05:47 873.61M 2512110.5 Scoia Tael EU-Tichondrius
855 23 Sep 2014 05:47 884.42M 2543160.8 Angry US-Illidan
856 01 Oct 2014 05:48 893.01M 2565638.6 Ad Rem EU-Rexxar
857 10 Sep 2014 05:48 885.47M 2541864.6 TTseins EU-Ulduar
858 01 Oct 2014 05:48 857.81M 2461251.9 Seers of War EU-Moonglade
859 17 Sep 2014 05:48 872.89M 2504500.8 Lunar EU-Emerald Dream
860 29 Sep 2014 05:48 870.34M 2496671.1 CerealKillers EU-Ragnaros
861 30 Sep 2014 05:48 859.31M 2464690.9 group of awesome US-Burning Legion
862 24 Sep 2014 05:48 865.49M 2480410.5 РусЛегион EU-Гордунни
863 17 Sep 2014 05:48 860.18M 2464780.4 not Kinetic EU-Frostwolf
864 11 Sep 2014 05:49 860.78M 2466423.5 Hawtz US-Khaz Modan
865 01 Oct 2014 05:49 870.68M 2494270.9 Forsaken Heroes EU-Dalvengyr
866 24 Sep 2014 05:49 859.62M 2462356.7 Total Control EU-Argent Dawn
867 07 Sep 2014 05:49 753.09M 2156805.2 Mental Insanity EU-Kazzak
868 18 Sep 2014 05:49 866.04M 2478581.1 Agnus Dei EU-Kor'gall
869 08 Oct 2014 05:49 896.08M 2562084.4 Stiff EU-Tarren Mill
870 05 Oct 2014 05:50 869.42M 2483405.1 Feuer des Phönix EU-Thrall
871 09 Oct 2014 05:50 870.94M 2484554.9 Safety not Guaranteed EU-Emerald Dream
872 18 Sep 2014 05:50 859.17M 2450849.0 Biceratops US-Hyjal
873 09 Sep 2014 05:50 890.43M 2539525.0 Myrmidons US-Tol Barad
874 16 Sep 2014 05:50 897.33M 2559193.0 Monster Leesins logs US-Mal'Ganis
875 24 Sep 2014 05:50 864.34M 2463994.0 Iridescence EU-Thunderhorn
876 24 Sep 2014 05:51 835.13M 2377373.1 Kitch EU-Свежеватель Душ
877 05 Sep 2014 05:51 801.29M 2280986.1 Fat Kids OP at Seesaw US-Lightbringer
878 18 Sep 2014 05:51 901.88M 2564305.2 Reanimation EU-Свежеватель Душ
879 11 Sep 2014 05:51 880.70M 2503525.4 How I Met My Ranking EU-Eredar
880 17 Sep 2014 05:51 873.51M 2482778.7 Enhanced EU-Sargeras
881 01 Oct 2014 05:51 902.91M 2566205.9 Team Mistral EU-Thrall
882 24 Sep 2014 05:51 835.38M 2374104.2 FA Logs EU-Nozdormu
883 05 Oct 2014 05:51 929.45M 2640871.9 | Infected | EU-Frostwolf
884 08 Sep 2014 05:52 789.13M 2241737.8 YMKA EU-Ясеневый лес
885 12 Sep 2014 05:52 867.44M 2461298.5 Burial US-Turalyon
886 17 Sep 2014 05:52 887.89M 2518848.6 Ad Rem EU-Rexxar
887 30 Sep 2014 05:52 878.08M 2490707.0 Paradise US-Skullcrusher
888 17 Sep 2014 05:52 859.41M 2436544.9 tlc US-Firetree
889 17 Sep 2014 05:52 889.54M 2521372.0 Annihilation Cleave EU-Свежеватель Душ
890 03 Oct 2014 05:53 873.50M 2472986.8 Scoia Tael EU-Tichondrius
891 08 Oct 2014 05:53 861.76M 2439180.4 Daybreak EU-Moonglade
892 12 Oct 2014 05:53 934.16M 2643104.4 | Infected | EU-Frostwolf
893 07 Oct 2014 05:53 908.08M 2567128.0 Down For Life US-Uldaman
894 10 Sep 2014 05:54 876.96M 2476492.9 Belore EU-Thrall
895 01 Oct 2014 05:54 868.60M 2452020.2 Omnicide EU-Ravencrest
896 10 Sep 2014 05:54 857.42M 2418665.5 Myth EU-Blackmoore
897 09 Sep 2014 05:54 903.75M 2548797.3 The Consortium US-Zul'jin
898 17 Sep 2014 05:54 858.69M 2421581.1 Vortex US-Terenas
899 01 Oct 2014 05:54 859.97M 2424503.6 Total Control EU-Argent Dawn
900 05 Oct 2014 05:54 863.14M 2433039.2 Azeroths Most Deadly US-Zul'jin

Please do not close the page with the ad you want to report.

I've posted a guide on how to report misbehaving ads on the forum. Please follow the instructions and help make the internet a safer place. Thanks for you time.